Location: Unspecified
(0.0000°N, 0.0000°E)
Time: 17:22:18
(UTC+00:00)

DMSP B5D2-6 - Visible Passes

Search period start: 31 May 2023 00:00
Search period end: 10 June 2023 00:00
Orbit: 827 x 845 km, 98.8° (Epoch: 30 May)

Date Brightness Start Highest point End Pass type
(mag) Time Alt. Az. Time Alt. Az. Time Alt. Az.
31 May 6.1 18:41:49 10° SE 18:46:19 28° ENE 18:50:54 10° NNE visible
31 May 7.4 20:23:31 13° SW 20:26:25 20° WSW 20:30:18 10° WNW visible
01 Jun 6.6 18:26:37 10° ESE 18:30:16 18° ENE 18:33:53 10° NE visible
01 Jun 6.8 20:07:10 18° SSW 20:10:22 30° WSW 20:15:06 10° NW visible
02 Jun 6.0 19:50:50 20° SSW 19:54:18 47° WSW 19:59:31 10° NNW visible
03 Jun 5.3 19:34:30 21° S 19:38:14 73° WSW 19:43:41 10° NNW visible
04 Jun 5.1 19:18:10 19° SSE 19:22:10 74° ENE 19:27:37 10° N visible
05 Jun 5.5 19:01:49 15° SSE 19:06:06 47° ENE 19:11:19 10° N visible
05 Jun 7.9 20:44:37 10° WSW 20:46:10 11° WSW 20:47:43 10° W visible
06 Jun 6.0 18:45:29 11° SE 18:50:02 31° ENE 18:54:46 10° NNE visible
06 Jun 7.5 20:27:10 12° SW 20:30:08 18° WSW 20:33:45 10° WNW visible
07 Jun 6.5 18:30:04 10° ESE 18:33:58 20° ENE 18:37:52 10° NNE visible
07 Jun 6.9 20:10:50 16° SSW 20:14:04 28° WSW 20:18:39 10° NW visible
08 Jun 6.2 19:54:29 19° SSW 19:58:01 42° WSW 20:03:09 10° NNW visible
09 Jun 5.5 19:38:09 20° S 19:41:57 66° WSW 19:47:22 10° NNW visible
